Tiempo cada hora Alikonovka

Hoy, 2 Agosto, Lunes

Tiempo Temperatura Precipitaciones Viento Presión Humedad
00:00 +19°C° 0.4 mm 3 mps 689 mmHg 80%
01:00 +19°C° 0.5 mm 3 mps 689 mmHg 81%
02:00 +19°C° 0.5 mm 3 mps 689 mmHg 82%
03:00 +18°C° 0.5 mm 3 mps 689 mmHg 82%
04:00 +19°C° 0.1 mm 3 mps 689 mmHg 81%
05:00 +19°C° 0.1 mm 2 mps 689 mmHg 80%
06:00 +19°C° 0.1 mm 2 mps 689 mmHg 78%
07:00 +21°C° 0.3 mm 2 mps 690 mmHg 74%
08:00 +24°C° 0.3 mm 1 mps 690 mmHg 69%
09:00 +26°C° 0.3 mm 1 mps 690 mmHg 64%
10:00 +27°C° 0.6 mm 1 mps 690 mmHg 62%
11:00 +28°C° 0.6 mm 1 mps 690 mmHg 59%
12:00 +28°C° 0.6 mm 2 mps 690 mmHg 57%
13:00 +29°C° 0.6 mm 1 mps 690 mmHg 56%
14:00 +29°C° 0.6 mm 1 mps 690 mmHg 55%
15:00 +29°C° 0.6 mm 1 mps 690 mmHg 55%
16:00 +28°C° 0.6 mm 1 mps 690 mmHg 59%
17:00 +28°C° 0.6 mm 1 mps 690 mmHg 63%
18:00 +27°C° 0.6 mm 1 mps 690 mmHg 67%
19:00 +25°C° 0.2 mm 1 mps 690 mmHg 68%
20:00 +24°C° 0.2 mm 2 mps 690 mmHg 70%
21:00 +21°C° 0.2 mm 3 mps 690 mmHg 71%
22:00 +21°C° 0 mm 3 mps 690 mmHg 71%
23:00 +20°C° 0 mm 3 mps 689 mmHg 71%

Mañana, 3 Agosto, Martes

Tiempo Temperatura Precipitaciones Viento Presión Humedad
00:00 +20°C° 0 mm 3 mps 689 mmHg 71%
01:00 +20°C° 0 mm 3 mps 689 mmHg 70%
02:00 +20°C° 0 mm 3 mps 689 mmHg 70%
03:00 +20°C° 0 mm 3 mps 689 mmHg 69%
04:00 +20°C° 0 mm 3 mps 690 mmHg 70%
05:00 +20°C° 0 mm 2 mps 690 mmHg 71%
06:00 +20°C° 0 mm 2 mps 690 mmHg 72%
07:00 +23°C° 0 mm 2 mps 690 mmHg 67%
08:00 +25°C° 0 mm 1 mps 691 mmHg 62%
09:00 +28°C° 0 mm 1 mps 691 mmHg 56%
10:00 +28°C° 0.1 mm 1 mps 691 mmHg 55%
11:00 +29°C° 0.1 mm 1 mps 691 mmHg 54%
12:00 +29°C° 0.1 mm 2 mps 691 mmHg 53%
13:00 +30°C° 0.4 mm 2 mps 691 mmHg 53%
14:00 +30°C° 0.4 mm 1 mps 691 mmHg 52%
15:00 +30°C° 0.4 mm 1 mps 691 mmHg 51%
16:00 +29°C° 0.3 mm 1 mps 691 mmHg 57%
17:00 +28°C° 0.3 mm 1 mps 691 mmHg 62%
18:00 +27°C° 0.3 mm 1 mps 691 mmHg 67%
19:00 +26°C° 0 mm 2 mps 691 mmHg 67%
20:00 +25°C° 0 mm 2 mps 691 mmHg 66%
21:00 +24°C° 0 mm 3 mps 691 mmHg 65%
22:00 +22°C° 0 mm 3 mps 691 mmHg 65%
23:00 +22°C° 0 mm 3 mps 691 mmHg 65%

Pasado mañana, 4 Agosto, Miércoles

Tiempo Temperatura Precipitaciones Viento Presión Humedad
00:00 +21°C° 0 mm 3 mps 691 mmHg 65%
01:00 +21°C° 0 mm 3 mps 691 mmHg 65%
02:00 +21°C° 0 mm 3 mps 691 mmHg 65%
03:00 +21°C° 0 mm 3 mps 691 mmHg 65%
04:00 +20°C° 0 mm 3 mps 691 mmHg 66%
05:00 +20°C° 0 mm 3 mps 691 mmHg 66%
06:00 +20°C° 0 mm 3 mps 692 mmHg 67%
07:00 +23°C° 0 mm 2 mps 692 mmHg 62%
08:00 +26°C° 0 mm 2 mps 692 mmHg 57%
09:00 +28°C° 0 mm 1 mps 692 mmHg 51%
10:00 +29°C° 0 mm 2 mps 692 mmHg 50%
11:00 +30°C° 0 mm 2 mps 692 mmHg 49%
12:00 +30°C° 0 mm 2 mps 692 mmHg 48%
13:00 +30°C° 0.2 mm 2 mps 692 mmHg 48%
14:00 +30°C° 0.2 mm 2 mps 692 mmHg 48%
15:00 +31°C° 0.2 mm 2 mps 692 mmHg 49%
16:00 +30°C° 0.4 mm 1 mps 692 mmHg 53%
17:00 +30°C° 0.4 mm 1 mps 692 mmHg 57%
18:00 +29°C° 0.4 mm 1 mps 692 mmHg 61%
19:00 +27°C° 0.1 mm 1 mps 692 mmHg 62%
20:00 +26°C° 0.1 mm 2 mps 692 mmHg 63%
21:00 +24°C° 0.1 mm 3 mps 692 mmHg 64%
22:00 +24°C° 0 mm 3 mps 691 mmHg 65%
23:00 +23°C° 0 mm 2 mps 691 mmHg 67%

5 Agosto, Jueves

Tiempo Temperatura Precipitaciones Viento Presión Humedad
00:00 +21°C° 0 mm 2 mps 691 mmHg 68%
01:00 +21°C° 0 mm 2 mps 691 mmHg 69%
02:00 +21°C° 0 mm 2 mps 691 mmHg 69%
03:00 +20°C° 0 mm 2 mps 690 mmHg 70%
04:00 +20°C° 0 mm 2 mps 691 mmHg 71%
05:00 +20°C° 0 mm 2 mps 691 mmHg 72%
06:00 +20°C° 0 mm 2 mps 691 mmHg 73%
07:00 +23°C° 0 mm 2 mps 691 mmHg 69%
08:00 +25°C° 0 mm 2 mps 691 mmHg 65%
09:00 +26°C° 0 mm 2 mps 692 mmHg 61%
10:00 +27°C° 0 mm 2 mps 692 mmHg 59%
11:00 +28°C° 0 mm 3 mps 692 mmHg 58%
12:00 +29°C° 0 mm 3 mps 692 mmHg 57%
13:00 +29°C° 0.1 mm 3 mps 692 mmHg 56%
14:00 +29°C° 0.1 mm 3 mps 692 mmHg 56%
15:00 +29°C° 0.1 mm 4 mps 691 mmHg 55%
16:00 +29°C° 0.1 mm 3 mps 691 mmHg 59%
17:00 +28°C° 0.1 mm 3 mps 691 mmHg 63%
18:00 +27°C° 0.1 mm 3 mps 691 mmHg 67%
19:00 +26°C° 0 mm 3 mps 691 mmHg 69%
20:00 +24°C° 0 mm 2 mps 691 mmHg 70%
21:00 +23°C° 0 mm 2 mps 691 mmHg 72%
22:00 +21°C° 0 mm 2 mps 690 mmHg 72%
23:00 +21°C° 0 mm 2 mps 690 mmHg 73%

6 Agosto, Viernes

Tiempo Temperatura Precipitaciones Viento Presión Humedad
00:00 +20°C° 0 mm 2 mps 690 mmHg 74%
01:00 +20°C° 0 mm 2 mps 689 mmHg 74%
02:00 +20°C° 0 mm 2 mps 689 mmHg 75%
03:00 +19°C° 0 mm 2 mps 689 mmHg 75%
04:00 +20°C° 0 mm 2 mps 689 mmHg 75%
05:00 +20°C° 0 mm 2 mps 689 mmHg 74%
06:00 +20°C° 0 mm 2 mps 689 mmHg 74%
07:00 +23°C° 0 mm 2 mps 689 mmHg 69%
08:00 +24°C° 0 mm 3 mps 689 mmHg 65%
09:00 +26°C° 0 mm 3 mps 689 mmHg 61%
10:00 +27°C° 0 mm 4 mps 689 mmHg 60%
11:00 +28°C° 0 mm 5 mps 689 mmHg 58%
12:00 +29°C° 0 mm 5 mps 688 mmHg 57%
13:00 +29°C° 0.1 mm 5 mps 688 mmHg 57%
14:00 +29°C° 0.1 mm 5 mps 688 mmHg 58%
15:00 +29°C° 0.1 mm 4 mps 688 mmHg 59%
16:00 +29°C° 0.4 mm 3 mps 688 mmHg 62%
17:00 +28°C° 0.4 mm 3 mps 688 mmHg 66%
18:00 +27°C° 0.4 mm 2 mps 688 mmHg 69%
19:00 +25°C° 0.7 mm 2 mps 688 mmHg 73%
20:00 +24°C° 0.7 mm 2 mps 688 mmHg 77%
21:00 +21°C° 0.7 mm 3 mps 688 mmHg 82%
22:00 +21°C° 0.2 mm 3 mps 687 mmHg 80%
23:00 +21°C° 0.2 mm 3 mps 687 mmHg 79%

7 Agosto, Sábado

Tiempo Temperatura Precipitaciones Viento Presión Humedad
00:00 +21°C° 0.2 mm 3 mps 687 mmHg 78%
01:00 +20°C° 0 mm 3 mps 686 mmHg 76%
02:00 +20°C° 0 mm 2 mps 686 mmHg 74%
03:00 +20°C° 0 mm 2 mps 686 mmHg 73%
04:00 +20°C° 0 mm 2 mps 686 mmHg 72%
05:00 +20°C° 0 mm 2 mps 686 mmHg 72%
06:00 +20°C° 0 mm 2 mps 687 mmHg 72%
07:00 +23°C° 0 mm 2 mps 687 mmHg 68%
08:00 +25°C° 0 mm 1 mps 687 mmHg 64%
09:00 +27°C° 0 mm 1 mps 688 mmHg 60%
10:00 +28°C° 0.2 mm 1 mps 688 mmHg 59%
11:00 +28°C° 0.2 mm 2 mps 688 mmHg 58%
12:00 +29°C° 0.2 mm 2 mps 688 mmHg 57%
13:00 +28°C° 0.9 mm 3 mps 688 mmHg 63%
14:00 +26°C° 0.9 mm 4 mps 688 mmHg 68%
15:00 +23°C° 0.9 mm 5 mps 688 mmHg 73%
16:00 +23°C° 0.5 mm 4 mps 689 mmHg 74%
17:00 +24°C° 0.5 mm 3 mps 689 mmHg 76%
18:00 +22°C° 0.5 mm 3 mps 689 mmHg 77%
19:00 +22°C° 0 mm 3 mps 689 mmHg 72%
20:00 +22°C° 0 mm 3 mps 689 mmHg 68%
21:00 +21°C° 0 mm 3 mps 688 mmHg 64%
22:00 +21°C° 0 mm 2 mps 688 mmHg 64%
23:00 +21°C° 0 mm 2 mps 689 mmHg 64%
Mostrar más

Necesitamos Su Consentimiento

Meteoprog y nuestros Proveedores de Servicios pueden almacenar y acceder a sus datos personales como cookies, identificadores de dispositivo u otras tecnologías similares de su dispositivo y procesar dichos datos para personalizar contenido y anuncios, además de ofrecer funciones de redes sociales y analizar el tráfico.

  • Almacenar y/o acceder a información en su dispositivo

    Se puede almacenar o acceder a cookies, identificadores de dispositivo u otra información de su dispositivo para los fines anteriormente indicados.

  • Anuncios y contenido personalizados, medición de anuncios y contenido, percepciones del público, y desarrollo de productos

    Los anuncios y el contenido pueden personalizarse en base a su perfil. Se pueden añadir más datos para personalizar mejor los anuncios y contenidos. Se puede medir el rendimiento de los anuncios y contenidos. Se puede obtener la percepción sobre el público que ha visto los anuncios y contenidos. Dichos datos pueden usarse para desarrollar o mejorar la experiencia del usuario, sistemas y software.

Al hacer clic en ‘Estoy De Acuerdo’ usted permitirá el uso de las cookies, identificadores de dispositivo, balizas web u otras tecnologías similares indicadas. Su configuración puede cambiarse desde el navegador de su dispositivo.

Para ciertos fines, los intereses legítimos pueden ser considerados por encima del consentimiento. Puede leer más sobre ello en nuestra Política de Privacidad y Cookies.